Content
SEND FEEDBACK

Daily
Averages
Monthly
Summary
United States of America

FRANKLIN, INDIANA


Home > North America > United States > Indiana
Elevation: 740 feet     Latitude: 39 29N     Longitude: 086 03W

WEATHER
 
SELECT A DAY
Number of Records: 176,897;   Date Range: 10/15/98 - 11/21/14
 
SHARE

PRINT THIS DATA

[ ← Previous Day ]
WEATHER ALMANAC - FEBRUARY 13, 2013
[ Next Day → ]
[ °C ]   °F
Weather ElementAverageHighLow
Temperature34.2 °F43 °F (4:53 pm)28.9 °F (3:53 am)
Dewpoint26 °F30 °F (9:53 pm)24.1 °F (6:53 am)
Humidity73 %89 % (3:53 am)49 % (4:53 pm)
Barometer29.84 in29.90 in (1:53 am)29.78 in (3:53 pm)
Wind Speed6.3 mph10.4 mph (7:53 pm)
Weather ElementAverage
Visibility8.6 mi
Wind DirectionSSE (169.6 °)

Weather ElementTotal
Precipitation---
Heating Degree Days29.1 (Base 65)
Averaged from 23 records on February 13, 2013
WEATHER CONDITIONS BREAKOUT
WIND DIRECTION BREAKOUT
WEATHER BY HOUR - FEBRUARY 13, 2013
[ °C ]   °F
Local TimeTemperatureDewpointHumidityBarometerVisibilityWind DirectionWind SpeedGust SpeedPrecipitationEventsConditions
1:53 AM30.9 °F27.0 °F85 %29.90 in6.0 miNNE (20°)5.8 mphOvercast
2:53 AM30.9 °F26.1 °F82 %29.89 in6.0 miNNE (20°)3.5 mphHaze
3:53 AM28.9 °F26.1 °F89 %29.88 in5.0 miNorth (350°)6.9 mphScattered Clouds
4:53 AM30.0 °F26.1 °F85 %29.85 in6.0 miNorth (10°)6.9 mphMostly Cloudy
5:53 AM30.0 °F25.0 °F82 %29.83 in8.0 miNNE (30°)6.9 mphMostly Cloudy
6:53 AM30.0 °F24.1 °F79 %29.81 in9.0 miNNE (20°)8.1 mphOvercast
7:53 AM30.0 °F24.1 °F79 %29.83 in9.0 miNorth (360°)5.8 mphOvercast
8:53 AM30.0 °F24.1 °F79 %29.85 in8.0 miNNW (340°)4.6 mphOvercast
9:53 AM30.9 °F24.1 °F76 %29.86 in8.0 miCalmOvercast
10:53 AM30.9 °F25.0 °F79 %29.84 in8.0 miNorth (350°)8.1 mphOvercast
11:53 AM32.0 °F24.1 °F73 %29.85 in9.0 miCalmOvercast
12:53 PM34.0 °F25.0 °F70 %29.82 in10.0 miCalmMostly Cloudy
1:53 PM36.0 °F25.0 °F64 %29.80 in10.0 miWNW (290°)4.6 mphClear
2:53 PM39.9 °F25.0 °F55 %29.79 in10.0 miWNW (290°)6.9 mphClear
3:53 PM42.1 °F26.1 °F53 %29.78 in10.0 miWest (260°)8.1 mphClear
4:53 PM43.0 °F25.0 °F49 %29.80 in10.0 miWSW (240°)5.8 mphClear
5:53 PM41.0 °F27.0 °F57 %29.81 in10.0 miSouth (190°)6.9 mphClear
6:53 PM39.0 °F26.1 °F60 %29.82 in10.0 miSouth (190°)6.9 mphClear
7:53 PM37.0 °F28.0 °F70 %29.84 in10.0 miSouth (180°)10.4 mphScattered Clouds
8:53 PM35.1 °F28.9 °F78 %29.85 in8.0 miSouth (190°)8.1 mphClear
9:53 PM36.0 °F30.0 °F79 %29.86 in8.0 miSouth (190°)10.4 mphOvercast
10:53 PM35.1 °F28.0 °F76 %29.86 in10.0 miSouth (190°)9.2 mphPartly Cloudy
11:53 PM34.0 °F28.0 °F79 %29.86 in9.0 miSouth (190°)10.4 mphClear
Hourly data recorded from KGEZ, located miles away from Franklin, Indiana







STORIES FROM OUR PARTNERS